QPF
0.00 0.00 0.00 0.00 0.00 0.00 0.00 0.00 0.00 0.00 0.00 0.00 0.00 0.00 0.00 0.00 0.00 0.00 0.00 0.00 0.00 0.00 0.00 0.00 0.00 0.00 0.00 0.00 0.00 0.00 0.00 0.00 0.00 0.00 0.00 0.00 0.00 0.00 0.00 0.00 0.00 0.00 0.00 0.00
0.00 0.00 0.00 0.00 0.00 0.00 0.00 0.00 0.00 0.00 0.00 0.00 0.00 0.00 0.00 0.00 0.00 0.00 0.00 0.00 0.00 0.00 0.00 0.00 0.00 0.00 0.00 0.00 0.00 0.00 0.00 0.00 0.00 0.00 0.00 0.00 0.00 0.00 0.00 0.00 0.00 0.00 0.00 0.00
0.00 0.00 0.00 0.00 0.00 0.00 0.00 0.00 0.00 0.00 0.00 0.00 0.00 0.00 0.00 0.00 0.00 0.00 0.00 0.00 0.00 0.00 0.00 0.00 0.00 0.00 0.00 0.00 0.00 0.00 0.00 0.00 0.00 0.00 0.00 0.00 0.00 0.00 0.00 0.00 0.00 0.00 0.00 0.00
0.00 0.00 0.00 0.00 0.00 0.00 0.00 0.00 0.00 0.00 0.00 0.00 0.00 0.00 0.00 0.00 0.00 0.00 0.00 0.00 0.00 0.00 0.00 0.00 0.00 0.00 0.00 0.00 0.00 0.00 0.00 0.00 0.00 0.00 0.00 0.00 0.00 0.00 0.00 0.00 0.00 0.00 0.00 0.00
0.00 0.00 0.00 0.00 0.00 0.00 0.00 0.00 0.00 0.00 0.00 0.00 0.00 0.00 0.00 0.00 0.00 0.00 0.00 0.00 0.00 0.00 0.00 0.00 0.00 0.00 0.00 0.00 0.00 0.00 0.00 0.00 0.00 0.00 0.00 0.00 0.00 0.00 0.00 0.00 0.00 0.00 0.00 0.00
0.00 0.00 0.00 0.00 0.00 0.00 0.00 0.00 0.00 0.00 0.00 0.00 0.00 0.00 0.00 0.00 0.00 0.00 0.00 0.00 0.00 0.00 0.00 0.00 0.00 0.00 0.00 0.00 0.00 0.00 0.00 0.00 0.00 0.00 0.00 0.00 0.00 0.00 0.00 0.00 0.00 0.00 0.00 0.00
0.00 0.00 0.00 0.00 0.00 0.00 0.00 0.00 0.00 0.00 0.00 0.00 0.00 0.00 0.00 0.00 0.00 0.00 0.00 0.00 0.00 0.00 0.00 0.00 0.00 0.00 0.00 0.00 0.00 0.00 0.00 0.00 0.00 0.00 0.00 0.00 0.00 0.00 0.00 0.00 0.00 0.00 0.00 0.00
0.00 0.00 0.00 0.00 0.00 0.00 0.00 0.00 0.00 0.00 0.00 0.00 0.00 0.00 0.00 0.00 0.00 0.00 0.00 0.00 0.00 0.00 0.00 0.00 0.00 0.00 0.00 0.00 0.00 0.00 0.00 0.00 0.00 0.00 0.00 0.00 0.00 0.00 0.00 0.00 0.00 0.00 0.00 0.00
0.00 0.00 0.00 0.00 0.00 0.00 0.00 0.00 0.00 0.00 0.00 0.00 0.00 0.00 0.00 0.00 0.00 0.00 0.00 0.00 0.00 0.00 0.00 0.00 0.00 0.00 0.00 0.00 0.00 0.00 0.00 0.00 0.00 0.00 0.00 0.00 0.00 0.00 0.00 0.00 0.00 0.00 0.00 0.00
0.00 0.00 0.00 0.00 0.00 0.00 0.00 0.00 0.00 0.00 0.00 0.00 0.00 0.00 0.00 0.00 0.00 0.00 0.00 0.00 0.00 0.00 0.00 0.00 0.00 0.00 0.00 0.00 0.00 0.00 0.00 0.00 0.00 0.00 0.00 0.00 0.00 0.00 0.00 0.00 0.00 0.00 0.00 0.00
0.00 0.00 0.00 0.00 0.00 0.00 0.00 0.00 0.00 0.00 0.00 0.00 0.00 0.00 0.00 0.00 0.00 0.00 0.00 0.00 0.00 0.00 0.00 0.00 0.00 0.00 0.00 0.00 0.00 0.00 0.00 0.00 0.00 0.00 0.00 0.00 0.00 0.00 0.00 0.00 0.00 0.00 0.00 0.00
0.00 0.00 0.00 0.00 0.00 0.00 0.00 0.00 0.00 0.00 0.00 0.00 0.00 0.00 0.00 0.00 0.00 0.00 0.00 0.00 0.00 0.00 0.00 0.00 0.00 0.00 0.00 0.00 0.00 0.00 0.00 0.00 0.00 0.00 0.00 0.00 0.00 0.00 0.00 0.00 0.00 0.00 0.00 0.00
0.00 0.00 0.00 0.00 0.00 0.00 0.00 0.00 0.00 0.00 0.00 0.00 0.00 0.00 0.00 0.00 0.00 0.00 0.00 0.00 0.00 0.00 0.00 0.00 0.00 0.00 0.00 0.00 0.00 0.00 0.00 0.00 0.00 0.00 0.00 0.00 0.00 0.00 0.00 0.00 0.00 0.00 0.00 0.00
0.00 0.00 0.00 0.00 0.00 0.00 0.00 0.00 0.00 0.00 0.00 0.00 0.00 0.00 0.00 0.00 0.00 0.00 0.00 0.00 0.00 0.00 0.00 0.00 0.00 0.00 0.00 0.00 0.00 0.00 0.00 0.00 0.00 0.00 0.00 0.00 0.00 0.00 0.00 0.00 0.00 0.00 0.00 0.00
0.00 0.00 0.00 0.00 0.00 0.00 0.00 0.00 0.00 0.00 0.00 0.00 0.00 0.00 0.00 0.00 0.00 0.00 0.00 0.00 0.00 0.00 0.00 0.00 0.00 0.00 0.00 0.00 0.00 0.00 0.00 0.00 0.00 0.00 0.00 0.00 0.00 0.00 0.00 0.00 0.00 0.00 0.00 0.00
0.00 0.00 0.00 0.00 0.00 0.00 0.00 0.00 0.00 0.00 0.00 0.00 0.00 0.00 0.00 0.00 0.00 0.00 0.00 0.00 0.00 0.00 0.00 0.00 0.00 0.00 0.00 0.00 0.00 0.00 0.00 0.00 0.00 0.00 0.00 0.00 0.00 0.00 0.00 0.00 0.00 0.00 0.00 0.00
0.00 0.00 0.00 0.00 0.00 0.00 0.00 0.00 0.00 0.00 0.00 0.00 0.00 0.00 0.00 0.00 0.00 0.00 0.00 0.00 0.00 0.00 0.00 0.00 0.00 0.00 0.00 0.00 0.00 0.00 0.00 0.00 0.00 0.00 0.00 0.00 0.00 0.00 0.00 0.00 0.00 0.00 0.00 0.00
0.00 0.00 0.00 0.00 0.00 0.00 0.00 0.00 0.00 0.00 0.00 0.00 0.00 0.00 0.00 0.00 0.00 0.00 0.00 0.00 0.00 0.00 0.00 0.00 0.00 0.00 0.00 0.00 0.00 0.00 0.00 0.00 0.00 0.00 0.00 0.00 0.00 0.00 0.00 0.00 0.00 0.00 0.00 0.00
0.00 0.00 0.00 0.00 0.00 0.00 0.00 0.00 0.00 0.00 0.00 0.00 0.00 0.00 0.00 0.00 0.00 0.00 0.00 0.00 0.00 0.00 0.00 0.00 0.00 0.00 0.00 0.00 0.00 0.00 0.00 0.00 0.00 0.00 0.00 0.00 0.00 0.00 0.00 0.00 0.00 0.00 0.00 0.00
0.00 0.00 0.00 0.00 0.00 0.00 0.00 0.00 0.00 0.00 0.00 0.00 0.00 0.00 0.00 0.00 0.00 0.00 0.00 0.00 0.00 0.00 0.00 0.00 0.00 0.00 0.00 0.00 0.00 0.00 0.00 0.00 0.00 0.00 0.00 0.00 0.00 0.00 0.00 0.00 0.00 0.00 0.00 0.00
0.00 0.00 0.00 0.00 0.00 0.00 0.00 0.00 0.00 0.00 0.00 0.00 0.00 0.00 0.00 0.00 0.00 0.00 0.00 0.00 0.00 0.00 0.00 0.00 0.00 0.00 0.00 0.00 0.00 0.00 0.00 0.00 0.00 0.00 0.00 0.00 0.00 0.00 0.00 0.00 0.00 0.00 0.00 0.00
0.00 0.00 0.00 0.00 0.00 0.00 0.00 0.00 0.00 0.00 0.00 0.00 0.00 0.00 0.00 0.00 0.00 0.00 0.00 0.00 0.00 0.00 0.00 0.00 0.00 0.00 0.00 0.00 0.00 0.00 0.00 0.00 0.00 0.00 0.00 0.00 0.00 0.00 0.00 0.00 0.00 0.00 0.00 0.00
0.00 0.00 0.00 0.00 0.00 0.00 0.00 0.00 0.00 0.00 0.00 0.00 0.00 0.00 0.00 0.00 0.00 0.00 0.00 0.00 0.00 0.00 0.00 0.00 0.00 0.00 0.00 0.00 0.00 0.00 0.00 0.00 0.00 0.00 0.00 0.00 0.00 0.00 0.00 0.00 0.00 0.00 0.00 0.00
0.00 0.00 0.00 0.00 0.00 0.00 0.00 0.00 0.00 0.00 0.00 0.00 0.00 0.00 0.00 0.00 0.00 0.00 0.00 0.00 0.00 0.00 0.00 0.00 0.00 0.00 0.00 0.00 0.00 0.00 0.00 0.00 0.00 0.00 0.00 0.00 0.00 0.00 0.00 0.00 0.00 0.00 0.00 0.00
0.00 0.00 0.00 0.00 0.00 0.00 0.00 0.00 0.00 0.00 0.00 0.00 0.00 0.00 0.00 0.00 0.00 0.00 0.00 0.00 0.00 0.00 0.00 0.00 0.00 0.00 0.00 0.00 0.00 0.00 0.00 0.00 0.00 0.00 0.00 0.00 0.00 0.00 0.00 0.00 0.00 0.00 0.00 0.00
0.00 0.00 0.00 0.00 0.00 0.00 0.00 0.00 0.00 0.00 0.00 0.00 0.00 0.00 0.00 0.00 0.00 0.00 0.00 0.00 0.00 0.00 0.00 0.00 0.00 0.00 0.00 0.00 0.00 0.00 0.00 0.00 0.00 0.00 0.00 0.00 0.00 0.00 0.00 0.00 0.00 0.00 0.00 0.00
MSLP
1015.83 1016.52 1017.08 1017.50 1017.80 1017.99 1018.10 1018.11 1018.03 1017.83 1017.52 1017.09 1016.59 1016.04 1015.52 1015.09 1014.78 1014.64 1014.66 1014.80 1015.03 1015.28 1015.49 1015.63 1015.70 1015.71 1015.69 1015.71 1015.81 1016.01 1016.36 1016.82 1017.37 1017.95 1018.52 1019.02 1019.43 1019.72 1019.91 1020.01 1020.06 1020.10 1020.16 1020.26
1015.89 1016.42 1016.83 1017.14 1017.38 1017.59 1017.77 1017.90 1017.96 1017.90 1017.69 1017.31 1016.79 1016.17 1015.55 1014.99 1014.58 1014.37 1014.37 1014.56 1014.88 1015.25 1015.60 1015.87 1016.03 1016.09 1016.09 1016.08 1016.12 1016.27 1016.57 1017.00 1017.54 1018.14 1018.73 1019.27 1019.69 1019.97 1020.13 1020.18 1020.17 1020.15 1020.15 1020.21
1015.70 1016.07 1016.33 1016.54 1016.75 1016.99 1017.28 1017.57 1017.79 1017.88 1017.78 1017.45 1016.91 1016.23 1015.48 1014.79 1014.26 1013.96 1013.93 1014.14 1014.54 1015.04 1015.53 1015.95 1016.23 1016.38 1016.42 1016.42 1016.45 1016.57 1016.83 1017.24 1017.77 1018.37 1018.98 1019.53 1019.96 1020.24 1020.37 1020.39 1020.33 1020.26 1020.22 1020.25
1015.33 1015.54 1015.67 1015.80 1016.01 1016.32 1016.72 1017.17 1017.57 1017.81 1017.81 1017.53 1016.97 1016.21 1015.34 1014.50 1013.84 1013.44 1013.36 1013.58 1014.04 1014.65 1015.28 1015.85 1016.27 1016.53 1016.65 1016.70 1016.74 1016.85 1017.09 1017.48 1018.00 1018.60 1019.21 1019.76 1020.19 1020.47 1020.59 1020.59 1020.51 1020.41 1020.33 1020.33
1014.83 1014.91 1014.94 1015.04 1015.26 1015.65 1016.19 1016.79 1017.34 1017.71 1017.80 1017.55 1016.97 1016.12 1015.13 1014.16 1013.36 1012.86 1012.71 1012.92 1013.43 1014.12 1014.89 1015.59 1016.16 1016.55 1016.78 1016.89 1016.97 1017.09 1017.33 1017.69 1018.19 1018.76 1019.36 1019.90 1020.33 1020.61 1020.74 1020.74 1020.66 1020.55 1020.47 1020.45
1014.29 1014.27 1014.25 1014.33 1014.60 1015.08 1015.74 1016.47 1017.15 1017.62 1017.77 1017.53 1016.91 1015.98 1014.89 1013.79 1012.88 1012.28 1012.06 1012.25 1012.78 1013.55 1014.41 1015.24 1015.94 1016.46 1016.79 1016.99 1017.12 1017.26 1017.49 1017.84 1018.30 1018.84 1019.40 1019.93 1020.35 1020.64 1020.78 1020.81 1020.75 1020.66 1020.59 1020.57
1013.73 1013.66 1013.62 1013.73 1014.06 1014.62 1015.38 1016.21 1016.96 1017.49 1017.67 1017.43 1016.77 1015.79 1014.61 1013.43 1012.42 1011.75 1011.48 1011.64 1012.18 1012.98 1013.92 1014.84 1015.64 1016.27 1016.70 1016.98 1017.17 1017.35 1017.57 1017.90 1018.32 1018.82 1019.35 1019.84 1020.25 1020.55 1020.73 1020.79 1020.78 1020.73 1020.69 1020.69
1013.16 1013.07 1013.06 1013.22 1013.62 1014.26 1015.08 1015.96 1016.75 1017.30 1017.47 1017.21 1016.53 1015.51 1014.29 1013.07 1012.02 1011.30 1011.00 1011.14 1011.67 1012.48 1013.44 1014.41 1015.29 1015.99 1016.51 1016.86 1017.11 1017.32 1017.56 1017.87 1018.26 1018.72 1019.21 1019.67 1020.08 1020.39 1020.59 1020.71 1020.76 1020.77 1020.77 1020.79
1012.54 1012.49 1012.54 1012.77 1013.23 1013.92 1014.77 1015.66 1016.44 1016.96 1017.11 1016.84 1016.14 1015.12 1013.92 1012.70 1011.66 1010.95 1010.63 1010.75 1011.25 1012.03 1012.98 1013.96 1014.86 1015.61 1016.19 1016.61 1016.92 1017.18 1017.45 1017.76 1018.14 1018.57 1019.02 1019.47 1019.86 1020.19 1020.43 1020.59 1020.70 1020.77 1020.82 1020.87
1011.86 1011.88 1012.01 1012.32 1012.84 1013.56 1014.40 1015.25 1015.98 1016.45 1016.55 1016.25 1015.57 1014.59 1013.45 1012.30 1011.32 1010.64 1010.33 1010.43 1010.89 1011.62 1012.52 1013.46 1014.35 1015.11 1015.73 1016.21 1016.58 1016.91 1017.23 1017.57 1017.97 1018.39 1018.84 1019.27 1019.66 1019.99 1020.26 1020.47 1020.62 1020.75 1020.84 1020.91
1011.10 1011.22 1011.45 1011.84 1012.40 1013.12 1013.92 1014.69 1015.33 1015.71 1015.76 1015.45 1014.80 1013.90 1012.85 1011.82 1010.94 1010.33 1010.05 1010.13 1010.53 1011.18 1011.99 1012.86 1013.70 1014.45 1015.09 1015.63 1016.09 1016.50 1016.91 1017.33 1017.76 1018.22 1018.67 1019.11 1019.50 1019.84 1020.12 1020.36 1020.55 1020.70 1020.82 1020.90
1010.32 1010.55 1010.88 1011.33 1011.92 1012.61 1013.33 1013.99 1014.51 1014.79 1014.77 1014.45 1013.86 1013.05 1012.14 1011.25 1010.50 1009.98 1009.74 1009.80 1010.13 1010.68 1011.38 1012.14 1012.91 1013.64 1014.30 1014.90 1015.45 1015.98 1016.50 1017.02 1017.55 1018.06 1018.55 1019.00 1019.40 1019.74 1020.03 1020.27 1020.46 1020.63 1020.76 1020.84
1009.60 1009.94 1010.35 1010.85 1011.43 1012.05 1012.66 1013.19 1013.57 1013.73 1013.65 1013.32 1012.77 1012.08 1011.32 1010.59 1009.98 1009.55 1009.36 1009.40 1009.66 1010.10 1010.68 1011.33 1012.01 1012.70 1013.38 1014.05 1014.72 1015.38 1016.04 1016.69 1017.32 1017.92 1018.46 1018.93 1019.34 1019.68 1019.95 1020.18 1020.37 1020.52 1020.64 1020.70
1009.04 1009.46 1009.93 1010.44 1010.98 1011.51 1011.98 1012.35 1012.57 1012.61 1012.45 1012.11 1011.62 1011.04 1010.43 1009.85 1009.39 1009.06 1008.91 1008.94 1009.13 1009.47 1009.92 1010.46 1011.07 1011.73 1012.43 1013.18 1013.95 1014.75 1015.56 1016.35 1017.10 1017.78 1018.38 1018.89 1019.30 1019.63 1019.88 1020.09 1020.25 1020.37 1020.46 1020.50
1008.71 1009.18 1009.67 1010.16 1010.62 1011.02 1011.34 1011.53 1011.58 1011.49 1011.25 1010.90 1010.46 1009.98 1009.51 1009.09 1008.76 1008.54 1008.44 1008.46 1008.61 1008.85 1009.21 1009.65 1010.20 1010.83 1011.56 1012.37 1013.25 1014.18 1015.12 1016.03 1016.89 1017.65 1018.30 1018.83 1019.25 1019.55 1019.78 1019.95 1020.07 1020.16 1020.21 1020.22
1008.63 1009.11 1009.58 1010.00 1010.35 1010.61 1010.75 1010.76 1010.65 1010.43 1010.12 1009.75 1009.36 1008.98 1008.64 1008.36 1008.16 1008.04 1008.01 1008.04 1008.16 1008.35 1008.63 1009.01 1009.51 1010.13 1010.88 1011.74 1012.70 1013.72 1014.76 1015.77 1016.70 1017.52 1018.20 1018.74 1019.14 1019.42 1019.62 1019.75 1019.84 1019.89 1019.91 1019.89
1008.75 1009.20 1009.60 1009.91 1010.13 1010.22 1010.19 1010.03 1009.77 1009.44 1009.07 1008.70 1008.36 1008.07 1007.85 1007.72 1007.65 1007.64 1007.68 1007.76 1007.88 1008.06 1008.31 1008.65 1009.12 1009.73 1010.49 1011.38 1012.38 1013.45 1014.54 1015.59 1016.55 1017.38 1018.06 1018.58 1018.96 1019.21 1019.37 1019.47 1019.53 1019.56 1019.55 1019.51
1008.96 1009.33 1009.62 1009.81 1009.87 1009.80 1009.61 1009.31 1008.93 1008.52 1008.12 1007.77 1007.49 1007.30 1007.21 1007.21 1007.27 1007.38 1007.52 1007.67 1007.84 1008.04 1008.29 1008.64 1009.10 1009.70 1010.45 1011.34 1012.33 1013.40 1014.47 1015.50 1016.43 1017.23 1017.87 1018.35 1018.69 1018.91 1019.04 1019.12 1019.15 1019.16 1019.14 1019.07
1009.10 1009.36 1009.52 1009.56 1009.47 1009.26 1008.94 1008.54 1008.10 1007.66 1007.27 1006.96 1006.76 1006.69 1006.73 1006.86 1007.07 1007.31 1007.56 1007.81 1008.05 1008.31 1008.60 1008.97 1009.43 1010.03 1010.75 1011.60 1012.54 1013.54 1014.55 1015.50 1016.35 1017.07 1017.64 1018.06 1018.35 1018.53 1018.63 1018.69 1018.71 1018.70 1018.66 1018.59
1009.02 1009.15 1009.18 1009.09 1008.87 1008.56 1008.16 1007.71 1007.25 1006.83 1006.49 1006.27 1006.18 1006.23 1006.41 1006.69 1007.03 1007.41 1007.78 1008.14 1008.49 1008.82 1009.17 1009.57 1010.05 1010.62 1011.31 1012.09 1012.94 1013.83 1014.72 1015.54 1016.27 1016.88 1017.36 1017.71 1017.94 1018.08 1018.16 1018.20 1018.20 1018.19 1018.14 1018.04
1008.64 1008.65 1008.55 1008.35 1008.05 1007.67 1007.25 1006.81 1006.40 1006.05 1005.82 1005.71 1005.75 1005.94 1006.25 1006.66 1007.14 1007.64 1008.14 1008.61 1009.06 1009.48 1009.89 1010.33 1010.82 1011.37 1012.00 1012.69 1013.43 1014.18 1014.92 1015.60 1016.19 1016.68 1017.05 1017.32 1017.49 1017.59 1017.65 1017.66 1017.66 1017.62 1017.55 1017.43
1007.95 1007.86 1007.66 1007.38 1007.04 1006.66 1006.27 1005.90 1005.59 1005.36 1005.26 1005.29 1005.47 1005.79 1006.23 1006.77 1007.36 1007.97 1008.57 1009.14 1009.67 1010.17 1010.65 1011.12 1011.61 1012.13 1012.69 1013.28 1013.89 1014.50 1015.09 1015.62 1016.07 1016.43 1016.71 1016.90 1017.02 1017.09 1017.12 1017.11 1017.09 1017.02 1016.92 1016.76
1007.03 1006.86 1006.60 1006.30 1005.96 1005.63 1005.32 1005.06 1004.88 1004.81 1004.86 1005.04 1005.35 1005.79 1006.34 1006.96 1007.64 1008.32 1009.00 1009.64 1010.24 1010.79 1011.31 1011.80 1012.28 1012.77 1013.26 1013.76 1014.25 1014.73 1015.17 1015.57 1015.90 1016.16 1016.35 1016.48 1016.56 1016.59 1016.59 1016.56 1016.49 1016.39 1016.23 1016.02
1006.01 1005.79 1005.52 1005.23 1004.94 1004.69 1004.50 1004.39 1004.36 1004.45 1004.65 1004.96 1005.39 1005.93 1006.54 1007.23 1007.94 1008.67 1009.38 1010.05 1010.69 1011.27 1011.81 1012.30 1012.77 1013.22 1013.65 1014.06 1014.45 1014.82 1015.15 1015.43 1015.67 1015.85 1015.98 1016.06 1016.11 1016.11 1016.08 1016.01 1015.90 1015.73 1015.52 1015.23
1005.05 1004.82 1004.57 1004.33 1004.12 1003.98 1003.92 1003.96 1004.09 1004.32 1004.65 1005.07 1005.59 1006.18 1006.83 1007.53 1008.26 1008.98 1009.69 1010.37 1011.00 1011.59 1012.12 1012.61 1013.05 1013.46 1013.83 1014.17 1014.48 1014.76 1015.00 1015.21 1015.38 1015.51 1015.60 1015.65 1015.67 1015.64 1015.57 1015.46 1015.29 1015.06 1014.77 1014.41
1004.29 1004.08 1003.87 1003.70 1003.60 1003.57 1003.65 1003.82 1004.08 1004.43 1004.86 1005.36 1005.93 1006.54 1007.20 1007.88 1008.58 1009.27 1009.95 1010.60 1011.21 1011.77 1012.29 1012.75 1013.16 1013.52 1013.85 1014.13 1014.37 1014.59 1014.77 1014.92 1015.04 1015.13 1015.19 1015.22 1015.21 1015.16 1015.05 1014.89 1014.65 1014.36 1013.98 1013.55
Thickness
5656 5645 5644 5651 5654 5655 5654 5654 5654 5664 5677 5675 5672 5680 5690 5694 5692 5688 5685 5684 5683 5683 5685 5685 5685 5683 5682 5680 5677 5674 5669 5664 5660 5654 5649 5643 5638 5635 5631 5628 5624 5620 5616 5612
5636 5636 5653 5655 5652 5650 5648 5645 5649 5659 5670 5669 5668 5674 5686 5690 5692 5692 5688 5683 5680 5678 5677 5677 5677 5675 5674 5672 5669 5666 5663 5659 5655 5650 5644 5638 5633 5628 5624 5620 5617 5613 5609 5605
5631 5645 5653 5647 5643 5642 5643 5643 5647 5649 5658 5663 5662 5665 5678 5689 5693 5692 5688 5686 5680 5678 5673 5671 5669 5667 5665 5663 5661 5660 5656 5652 5648 5643 5637 5630 5624 5619 5615 5612 5608 5605 5601 5598
5628 5642 5645 5641 5641 5639 5636 5649 5648 5647 5640 5634 5647 5638 5668 5679 5683 5684 5679 5676 5673 5673 5669 5666 5663 5660 5657 5655 5653 5651 5648 5644 5640 5636 5631 5624 5617 5611 5607 5603 5600 5596 5593 5590
5626 5638 5637 5636 5642 5641 5640 5649 5646 5643 5634 5628 5632 5630 5658 5671 5672 5676 5674 5672 5670 5668 5665 5662 5659 5655 5651 5647 5645 5642 5639 5635 5631 5627 5623 5616 5610 5604 5599 5595 5591 5587 5584 5581
5627 5639 5640 5641 5646 5643 5641 5638 5631 5618 5615 5611 5628 5620 5642 5662 5673 5677 5673 5669 5666 5662 5660 5656 5652 5647 5643 5639 5636 5634 5630 5626 5622 5618 5613 5608 5602 5596 5591 5586 5582 5578 5574 5571
5617 5628 5637 5640 5633 5634 5630 5615 5601 5601 5594 5605 5627 5622 5644 5676 5680 5680 5678 5671 5664 5659 5654 5649 5645 5641 5636 5632 5628 5625 5622 5618 5613 5609 5604 5599 5594 5588 5584 5578 5574 5569 5564 5561
5601 5608 5625 5631 5630 5622 5618 5615 5598 5593 5592 5606 5623 5620 5653 5677 5680 5681 5679 5670 5660 5653 5650 5647 5643 5638 5632 5627 5622 5618 5614 5610 5605 5600 5595 5590 5585 5580 5575 5570 5565 5561 5556 5552
5601 5606 5626 5630 5634 5626 5610 5607 5614 5601 5600 5600 5613 5631 5655 5674 5673 5670 5666 5659 5654 5650 5646 5643 5637 5632 5627 5622 5617 5612 5607 5602 5597 5592 5586 5581 5576 5571 5566 5561 5556 5552 5547 5543
5607 5601 5615 5621 5623 5621 5618 5612 5598 5591 5586 5588 5605 5622 5639 5660 5662 5659 5656 5653 5650 5646 5641 5637 5633 5628 5622 5617 5611 5605 5600 5595 5589 5583 5578 5573 5567 5562 5557 5551 5546 5542 5538 5534
5606 5597 5601 5607 5609 5610 5608 5606 5603 5594 5590 5587 5592 5617 5650 5655 5658 5655 5653 5652 5649 5644 5640 5635 5629 5623 5617 5610 5603 5597 5592 5586 5580 5574 5569 5563 5558 5552 5547 5541 5536 5532 5527 5523
5603 5590 5586 5597 5610 5615 5611 5608 5601 5589 5590 5591 5590 5614 5653 5653 5654 5652 5649 5648 5645 5642 5637 5631 5624 5616 5609 5603 5597 5591 5585 5579 5573 5566 5560 5554 5548 5542 5536 5531 5526 5522 5517 5512
5601 5586 5578 5583 5592 5600 5601 5605 5606 5602 5595 5585 5586 5613 5646 5648 5649 5646 5643 5641 5639 5635 5629 5623 5616 5611 5605 5599 5592 5585 5578 5571 5564 5557 5551 5544 5538 5532 5526 5521 5516 5511 5506 5502
5608 5589 5588 5588 5595 5598 5597 5602 5604 5597 5588 5587 5595 5614 5633 5639 5640 5639 5637 5634 5632 5629 5625 5618 5612 5607 5601 5594 5586 5578 5570 5563 5556 5548 5541 5534 5528 5522 5516 5511 5506 5501 5496 5491
5600 5588 5590 5597 5603 5599 5600 5603 5602 5598 5600 5596 5607 5612 5627 5632 5632 5633 5632 5628 5623 5620 5618 5614 5609 5602 5594 5585 5578 5570 5562 5554 5547 5539 5531 5524 5518 5512 5506 5500 5495 5490 5485 5480
5590 5586 5587 5591 5596 5594 5595 5599 5599 5600 5602 5601 5605 5612 5629 5629 5628 5626 5624 5621 5619 5617 5615 5610 5604 5595 5587 5579 5571 5561 5553 5544 5537 5529 5521 5515 5508 5501 5495 5490 5484 5479 5474 5469
5579 5579 5576 5574 5587 5587 5582 5596 5598 5599 5603 5604 5604 5620 5626 5622 5621 5621 5621 5618 5617 5615 5610 5604 5598 5591 5582 5573 5564 5554 5544 5535 5526 5519 5511 5504 5498 5491 5485 5479 5473 5468 5463 5458
5573 5571 5566 5564 5570 5562 5593 5607 5607 5604 5608 5609 5612 5618 5620 5620 5620 5618 5617 5615 5612 5609 5603 5596 5588 5580 5571 5562 5553 5543 5533 5524 5516 5508 5501 5494 5487 5481 5475 5468 5463 5457 5453 5448
5572 5568 5555 5549 5554 5566 5584 5599 5601 5598 5601 5611 5610 5613 5613 5611 5608 5607 5609 5608 5605 5600 5594 5586 5578 5568 5559 5550 5541 5531 5522 5513 5505 5497 5490 5484 5477 5470 5464 5458 5452 5448 5443 5438
5561 5563 5553 5542 5549 5556 5583 5601 5606 5599 5592 5610 5608 5606 5602 5597 5591 5598 5600 5595 5590 5584 5578 5570 5561 5554 5545 5536 5529 5520 5510 5501 5494 5488 5481 5474 5467 5460 5454 5449 5443 5439 5433 5429
5548 5547 5545 5541 5546 5559 5583 5594 5594 5580 5592 5608 5604 5600 5592 5590 5593 5589 5582 5578 5573 5567 5561 5555 5548 5540 5531 5523 5516 5506 5497 5490 5484 5478 5470 5463 5457 5450 5445 5439 5434 5428 5424 5419
5554 5545 5540 5538 5539 5555 5584 5581 5583 5591 5597 5597 5595 5591 5585 5581 5574 5569 5565 5560 5555 5550 5544 5539 5532 5523 5516 5510 5503 5494 5486 5480 5473 5466 5459 5453 5446 5440 5435 5429 5423 5418 5412 5406
5558 5564 5562 5561 5569 5580 5582 5584 5588 5587 5586 5586 5583 5579 5573 5565 5560 5555 5549 5544 5540 5536 5530 5524 5517 5509 5501 5495 5490 5481 5474 5468 5461 5454 5448 5442 5436 5430 5424 5418 5412 5407 5400 5394
5549 5559 5557 5556 5564 5572 5574 5576 5578 5577 5578 5576 5572 5566 5561 5556 5549 5542 5535 5530 5525 5521 5515 5509 5503 5495 5487 5481 5475 5469 5462 5456 5449 5442 5436 5430 5425 5419 5414 5408 5402 5395 5388 5381
5553 5549 5550 5552 5561 5564 5567 5567 5568 5567 5566 5563 5560 5556 5551 5546 5538 5531 5524 5518 5513 5507 5501 5495 5489 5482 5474 5468 5462 5456 5450 5444 5437 5431 5425 5419 5414 5409 5404 5398 5391 5385 5379 5369
5543 5547 5552 5556 5559 5558 5562 5563 5559 5556 5554 5552 5548 5542 5538 5535 5528 5520 5513 5506 5500 5493 5487 5480 5474 5467 5461 5455 5449 5444 5439 5433 5426 5420 5414 5409 5403 5398 5392 5387 5383 5378 5369 5363